• In Kazakhstan
  • List of Countries
  • For 7 days
  • Water Temperature
  • Weather Map
  • News
  • Weather Widgets
  • user-avatar
    Login

    Hourly Weather Cambridge

    Today, 5 April, Sunday

    Time Temperature Precipitation Wind Pressure Humidity
    00:00 +5°C° 0 mm 4 mps 763 mmHg 82%
    01:00 +5°C° 0 mm 4 mps 762 mmHg 83%
    02:00 +5°C° 0 mm 4 mps 762 mmHg 84%
    03:00 +5°C° 0 mm 4 mps 761 mmHg 85%
    04:00 +5°C° 0 mm 4 mps 761 mmHg 86%
    05:00 +5°C° 0 mm 4 mps 761 mmHg 87%
    06:00 +5°C° 0 mm 4 mps 761 mmHg 89%
    07:00 +7°C° 0 mm 5 mps 761 mmHg 83%
    08:00 +9°C° 0 mm 6 mps 760 mmHg 77%
    09:00 +11°C° 0 mm 6 mps 760 mmHg 71%
    10:00 +12°C° 0 mm 7 mps 760 mmHg 68%
    11:00 +15°C° 0 mm 7 mps 759 mmHg 65%
    12:00 +16°C° 0 mm 7 mps 759 mmHg 62%
    13:00 +16°C° 0 mm 7 mps 758 mmHg 62%
    14:00 +17°C° 0 mm 8 mps 758 mmHg 61%
    15:00 +17°C° 0 mm 8 mps 757 mmHg 61%
    16:00 +16°C° 0 mm 7 mps 757 mmHg 64%
    17:00 +15°C° 0 mm 6 mps 757 mmHg 68%
    18:00 +14°C° 0 mm 6 mps 756 mmHg 72%
    19:00 +13°C° 0 mm 6 mps 757 mmHg 73%
    20:00 +13°C° 0 mm 6 mps 757 mmHg 74%
    21:00 +11°C° 0 mm 6 mps 757 mmHg 75%
    22:00 +11°C° 0 mm 6 mps 757 mmHg 77%
    23:00 +11°C° 0 mm 6 mps 757 mmHg 79%

    Tomorrow, 6 April, Monday

    Time Temperature Precipitation Wind Pressure Humidity
    00:00 +11°C° 0 mm 6 mps 756 mmHg 81%
    01:00 +11°C° 0 mm 6 mps 756 mmHg 81%
    02:00 +11°C° 0 mm 6 mps 757 mmHg 82%
    03:00 +11°C° 0 mm 6 mps 757 mmHg 82%
    04:00 +12°C° 0 mm 5 mps 757 mmHg 84%
    05:00 +12°C° 0 mm 5 mps 758 mmHg 87%
    06:00 +12°C° 0 mm 4 mps 758 mmHg 90%
    07:00 +12°C° 0 mm 4 mps 759 mmHg 86%
    08:00 +12°C° 0 mm 4 mps 760 mmHg 82%
    09:00 +13°C° 0 mm 4 mps 760 mmHg 79%
    10:00 +13°C° 0 mm 4 mps 761 mmHg 71%
    11:00 +14°C° 0 mm 4 mps 761 mmHg 63%
    12:00 +15°C° 0 mm 5 mps 762 mmHg 55%
    13:00 +15°C° 0 mm 5 mps 762 mmHg 56%
    14:00 +15°C° 0 mm 5 mps 763 mmHg 58%
    15:00 +15°C° 0 mm 5 mps 764 mmHg 59%
    16:00 +14°C° 0 mm 4 mps 764 mmHg 65%
    17:00 +13°C° 0 mm 3 mps 765 mmHg 72%
    18:00 +13°C° 0 mm 2 mps 766 mmHg 78%
    19:00 +12°C° 0 mm 2 mps 766 mmHg 80%
    20:00 +10°C° 0 mm 2 mps 767 mmHg 83%
    21:00 +8°C° 0 mm 2 mps 768 mmHg 85%
    22:00 +8°C° 0 mm 2 mps 769 mmHg 85%
    23:00 +7°C° 0 mm 2 mps 769 mmHg 84%

    Day after tomorrow, 7 April, Tuesday

    Time Temperature Precipitation Wind Pressure Humidity
    00:00 +6°C° 0 mm 2 mps 769 mmHg 83%
    01:00 +6°C° 0 mm 2 mps 770 mmHg 84%
    02:00 +7°C° 0 mm 1 mps 770 mmHg 85%
    03:00 +6°C° 0 mm 1 mps 771 mmHg 86%
    04:00 +6°C° 0 mm 1 mps 771 mmHg 86%
    05:00 +6°C° 0 mm 1 mps 771 mmHg 86%
    06:00 +6°C° 0 mm 1 mps 771 mmHg 85%
    07:00 +7°C° 0 mm 2 mps 772 mmHg 80%
    08:00 +9°C° 0 mm 2 mps 772 mmHg 75%
    09:00 +13°C° 0 mm 2 mps 772 mmHg 70%
    10:00 +14°C° 0 mm 2 mps 772 mmHg 66%
    11:00 +15°C° 0 mm 2 mps 772 mmHg 61%
    12:00 +16°C° 0 mm 2 mps 772 mmHg 57%
    13:00 +17°C° 0 mm 2 mps 772 mmHg 56%
    14:00 +17°C° 0 mm 2 mps 771 mmHg 55%
    15:00 +17°C° 0 mm 2 mps 771 mmHg 55%
    16:00 +16°C° 0 mm 2 mps 771 mmHg 62%
    17:00 +15°C° 0 mm 2 mps 771 mmHg 69%
    18:00 +14°C° 0 mm 2 mps 771 mmHg 76%
    19:00 +11°C° 0 mm 3 mps 771 mmHg 81%
    20:00 +10°C° 0 mm 3 mps 771 mmHg 85%
    21:00 +8°C° 0 mm 3 mps 772 mmHg 90%
    22:00 +8°C° 0 mm 2 mps 771 mmHg 90%
    23:00 +8°C° 0 mm 2 mps 771 mmHg 91%

    8 April, Wednesday

    Time Temperature Precipitation Wind Pressure Humidity
    00:00 +7°C° 0 mm 2 mps 771 mmHg 92%
    01:00 +9°C° 0 mm 1 mps 771 mmHg 90%
    02:00 +9°C° 0 mm 1 mps 771 mmHg 89%
    03:00 +8°C° 0 mm 0 mps 770 mmHg 88%
    04:00 +8°C° 0 mm 0 mps 770 mmHg 88%
    05:00 +9°C° 0 mm 0 mps 770 mmHg 87%
    06:00 +9°C° 0 mm 0 mps 770 mmHg 87%
    07:00 +11°C° 0 mm 1 mps 770 mmHg 84%
    08:00 +12°C° 0 mm 1 mps 770 mmHg 82%
    09:00 +13°C° 0 mm 1 mps 770 mmHg 79%
    10:00 +14°C° 0 mm 1 mps 770 mmHg 77%
    11:00 +15°C° 0 mm 1 mps 769 mmHg 75%
    12:00 +15°C° 0 mm 1 mps 769 mmHg 73%
    13:00 +16°C° 0 mm 1 mps 769 mmHg 72%
    14:00 +18°C° 0 mm 1 mps 768 mmHg 71%
    15:00 +19°C° 0 mm 1 mps 768 mmHg 70%
    16:00 +18°C° 0.1 mm 1 mps 768 mmHg 74%
    17:00 +16°C° 0.1 mm 1 mps 768 mmHg 78%
    18:00 +15°C° 0.1 mm 1 mps 768 mmHg 82%
    19:00 +14°C° 0 mm 1 mps 768 mmHg 84%
    20:00 +12°C° 0 mm 0 mps 768 mmHg 86%
    21:00 +10°C° 0 mm 0 mps 768 mmHg 88%
    22:00 +10°C° 0 mm 0 mps 768 mmHg 88%
    23:00 +10°C° 0 mm 1 mps 768 mmHg 89%

    9 April, Thursday

    Time Temperature Precipitation Wind Pressure Humidity
    00:00 +10°C° 0 mm 1 mps 768 mmHg 89%
    01:00 +10°C° 0 mm 1 mps 768 mmHg 89%
    02:00 +9°C° 0 mm 1 mps 768 mmHg 89%
    03:00 +9°C° 0 mm 1 mps 768 mmHg 89%
    04:00 +9°C° 0 mm 1 mps 768 mmHg 89%
    05:00 +9°C° 0 mm 1 mps 768 mmHg 89%
    06:00 +9°C° 0 mm 1 mps 768 mmHg 88%
    07:00 +11°C° 0 mm 1 mps 768 mmHg 84%
    08:00 +12°C° 0 mm 2 mps 768 mmHg 80%
    09:00 +14°C° 0 mm 2 mps 768 mmHg 76%
    10:00 +15°C° 0 mm 2 mps 768 mmHg 70%
    11:00 +17°C° 0 mm 2 mps 768 mmHg 65%
    12:00 +18°C° 0 mm 2 mps 768 mmHg 59%
    13:00 +18°C° 0 mm 2 mps 768 mmHg 60%
    14:00 +18°C° 0 mm 2 mps 768 mmHg 61%
    15:00 +18°C° 0 mm 2 mps 768 mmHg 62%
    16:00 +17°C° 0 mm 2 mps 768 mmHg 69%
    17:00 +16°C° 0 mm 2 mps 768 mmHg 76%
    18:00 +14°C° 0 mm 3 mps 768 mmHg 83%
    19:00 +12°C° 0 mm 3 mps 768 mmHg 87%
    20:00 +11°C° 0 mm 3 mps 768 mmHg 90%
    21:00 +9°C° 0 mm 3 mps 768 mmHg 93%
    22:00 +9°C° 0 mm 3 mps 768 mmHg 92%
    23:00 +8°C° 0 mm 3 mps 768 mmHg 91%

    10 April, Friday

    Time Temperature Precipitation Wind Pressure Humidity
    00:00 +8°C° 0 mm 3 mps 768 mmHg 90%
    01:00 +8°C° 0 mm 3 mps 768 mmHg 90%
    02:00 +7°C° 0 mm 2 mps 768 mmHg 90%
    03:00 +7°C° 0 mm 2 mps 767 mmHg 90%
    04:00 +7°C° 0 mm 2 mps 767 mmHg 91%
    05:00 +7°C° 0 mm 2 mps 767 mmHg 91%
    06:00 +8°C° 0 mm 2 mps 767 mmHg 92%
    07:00 +10°C° 0 mm 2 mps 767 mmHg 87%
    08:00 +13°C° 0 mm 2 mps 767 mmHg 82%
    09:00 +15°C° 0 mm 2 mps 767 mmHg 77%
    10:00 +16°C° 0 mm 2 mps 766 mmHg 72%
    11:00 +18°C° 0 mm 2 mps 766 mmHg 68%
    12:00 +20°C° 0 mm 2 mps 766 mmHg 63%
    13:00 +20°C° 0.3 mm 3 mps 765 mmHg 62%
    14:00 +20°C° 0.3 mm 3 mps 765 mmHg 60%
    15:00 +21°C° 0.3 mm 4 mps 765 mmHg 58%
    16:00 +19°C° 0.3 mm 3 mps 764 mmHg 65%
    17:00 +18°C° 0.3 mm 3 mps 764 mmHg 72%
    18:00 +16°C° 0.3 mm 3 mps 764 mmHg 79%
    19:00 +15°C° 0.1 mm 2 mps 764 mmHg 82%
    20:00 +14°C° 0.1 mm 2 mps 764 mmHg 85%
    21:00 +13°C° 0.1 mm 2 mps 764 mmHg 88%
    22:00 +13°C° 0 mm 2 mps 764 mmHg 90%
    23:00 +13°C° 0 mm 2 mps 764 mmHg 91%
    Show more